Total_Precipitation_Accumulation
2.05 2.04 1.99 1.96 1.85 1.93 2.09 2.29 2.32 2.67 2.78 2.41 2.02 1.89 1.88 1.95 1.86 1.85 1.77 1.68 1.61 1.74 2.12 2.36 2.23 1.99 1.69 1.45 1.31 1.19 1.07 0.93 0.84 0.74 0.74 0.82 0.81 0.75 0.68 0.62 0.57 0.49 0.43
2.18 2.29 2.14 2.10 1.96 1.91 2.07 2.25 2.41 2.91 2.93 2.73 2.30 2.07 1.98 1.94 1.78 1.71 1.80 1.98 1.79 1.68 1.81 2.10 2.31 2.29 2.14 1.89 1.62 1.42 1.26 1.16 0.99 0.77 0.67 0.72 0.75 0.73 0.72 0.70 0.65 0.54 0.45
2.17 2.19 2.02 1.91 1.95 2.08 2.25 2.28 2.41 2.73 2.49 2.47 2.27 2.11 1.90 1.71 1.54 1.50 1.67 1.85 1.73 1.67 1.79 1.93 2.13 2.23 2.33 2.36 2.20 2.03 1.67 1.41 1.20 0.97 0.79 0.73 0.75 0.70 0.68 0.71 0.69 0.61 0.49
2.06 2.22 2.02 1.86 2.17 2.22 2.30 2.53 2.67 2.68 2.63 2.62 2.39 2.07 1.83 1.70 1.38 1.27 1.30 1.41 1.61 1.42 1.67 1.88 1.93 2.00 2.24 2.52 2.74 2.77 2.40 1.95 1.62 1.39 1.13 0.97 0.94 0.86 0.71 0.66 0.69 0.61 0.47
2.12 2.39 2.36 2.43 2.50 2.54 2.56 2.42 2.74 2.77 2.66 2.67 2.32 2.05 1.67 1.48 1.29 1.14 1.08 1.05 1.20 1.29 1.37 1.49 1.63 1.73 2.10 2.69 3.03 3.19 3.11 2.69 2.16 1.85 1.64 1.47 1.39 1.16 0.89 0.76 0.75 0.71 0.57
2.23 2.58 2.44 2.44 2.53 2.67 2.71 2.64 2.68 2.69 2.43 2.39 2.17 1.93 1.53 1.21 1.12 1.05 0.91 0.88 0.93 0.91 1.07 1.32 1.55 1.38 1.73 2.27 2.67 3.09 3.41 3.24 2.65 2.28 2.13 2.01 1.90 1.61 1.13 0.90 0.85 0.81 0.75
2.23 2.56 2.45 2.62 2.58 2.59 2.59 2.62 2.65 2.51 2.12 2.31 2.41 1.95 1.43 1.10 1.09 0.86 0.78 0.81 0.84 0.84 1.04 1.34 1.54 1.53 1.42 1.49 1.81 2.24 2.82 3.13 2.90 2.56 2.41 2.28 2.28 2.06 1.51 1.18 1.05 0.91 0.89
2.40 2.42 2.53 2.50 2.55 2.66 2.57 2.52 2.57 2.38 2.00 2.14 2.35 2.42 1.81 1.41 1.07 0.74 0.80 0.91 1.00 1.10 1.13 1.24 1.41 1.56 1.53 1.74 1.59 1.50 1.99 2.64 3.06 3.00 2.71 2.29 2.08 1.97 1.75 1.60 1.38 1.18 1.13
2.58 2.54 2.52 2.42 2.36 2.23 2.26 2.33 2.33 2.31 2.15 2.05 2.24 2.52 2.13 1.66 1.36 0.94 0.85 0.91 1.12 1.34 1.34 1.38 1.37 1.53 1.66 1.96 2.06 1.78 1.57 1.88 2.59 3.23 3.24 2.68 2.12 1.83 1.76 1.75 1.73 1.56 1.43
2.45 2.21 2.08 2.14 2.12 2.02 2.03 1.82 1.89 2.01 1.98 1.82 1.96 2.02 2.04 2.08 2.01 1.41 1.01 0.91 1.08 1.24 1.36 1.28 1.27 1.43 1.65 1.86 2.08 1.96 1.57 1.46 1.80 2.61 3.07 2.93 2.49 2.02 1.79 1.81 2.10 2.08 1.74
2.15 1.84 1.74 1.82 1.83 1.76 1.69 1.62 1.75 1.67 1.61 1.57 1.73 1.88 1.96 2.04 2.01 1.89 1.51 1.41 1.38 1.21 1.20 1.23 1.36 1.47 1.52 1.78 2.09 1.91 1.81 1.66 1.54 1.66 2.03 2.36 2.48 2.29 2.16 2.32 2.67 2.84 2.59
1.83 1.56 1.43 1.55 1.65 1.68 1.64 1.61 1.68 1.57 1.56 1.66 1.64 1.69 1.87 1.86 1.87 2.02 1.76 1.65 1.59 1.30 1.22 1.31 1.36 1.52 1.57 1.72 1.76 1.88 1.79 1.54 1.40 1.35 1.43 1.69 1.98 2.11 2.18 2.40 2.83 3.22 3.34
1.53 1.46 1.45 1.53 1.57 1.64 1.55 1.58 1.62 1.66 1.75 1.78 1.69 1.65 1.72 1.72 1.78 1.98 1.98 1.82 1.73 1.55 1.54 1.51 1.37 1.36 1.31 1.44 1.52 1.52 1.34 1.23 1.11 1.06 1.08 1.15 1.29 1.52 1.76 2.05 2.49 2.92 3.22
1.60 1.63 1.60 1.49 1.45 1.52 1.45 1.66 1.60 1.64 1.77 1.76 1.58 1.76 1.77 1.76 1.95 2.13 2.24 2.30 2.10 1.85 1.79 1.78 1.67 1.48 1.37 1.36 1.38 1.32 1.14 1.07 0.89 0.84 0.85 0.88 0.94 1.07 1.29 1.52 1.81 2.12 2.39
1.71 1.81 1.77 1.65 1.54 1.59 1.69 1.92 1.88 1.89 2.04 1.97 1.91 2.04 1.96 1.87 1.95 2.05 2.20 2.36 2.45 2.20 2.03 1.97 1.81 1.54 1.41 1.39 1.35 1.20 1.24 1.13 0.92 0.82 0.77 0.73 0.75 0.84 0.91 1.01 1.18 1.38 1.59
1.59 1.75 1.86 1.81 1.73 1.74 1.87 2.03 2.04 2.17 2.28 2.24 2.26 2.33 2.24 2.08 2.13 2.18 2.17 2.33 2.55 2.49 2.18 1.85 1.69 1.50 1.41 1.25 1.32 1.21 1.20 1.13 0.98 0.87 0.76 0.71 0.71 0.73 0.73 0.77 0.87 0.99 1.16
1.57 1.64 1.79 1.86 1.80 1.79 1.90 1.97 1.93 2.15 2.25 2.25 2.21 2.21 2.16 2.23 2.23 2.14 2.19 2.33 2.51 2.55 2.25 1.83 1.76 1.74 1.70 1.57 1.50 1.39 1.27 1.21 1.04 0.95 0.84 0.78 0.74 0.73 0.73 0.74 0.77 0.82 0.89
1.62 1.68 1.78 1.78 1.69 1.70 1.85 1.88 1.92 2.10 2.17 2.09 2.04 2.05 1.89 1.93 1.96 1.85 1.96 2.03 2.13 2.32 2.27 2.02 2.00 2.00 1.96 1.84 1.76 1.69 1.52 1.32 1.10 1.04 0.90 0.83 0.80 0.75 0.73 0.74 0.77 0.82 0.87
1.61 1.66 1.67 1.68 1.71 1.82 1.89 1.87 1.84 1.80 1.77 1.81 1.97 2.04 1.85 1.82 1.74 1.74 1.78 1.76 1.82 1.95 2.10 2.05 2.01 2.07 2.02 1.98 1.88 1.70 1.59 1.46 1.18 1.09 1.03 0.94 0.87 0.80 0.76 0.76 0.78 0.85 0.92
1.49 1.58 1.64 1.72 1.78 1.83 1.85 1.88 1.87 1.78 1.71 1.70 1.78 1.81 1.77 1.73 1.68 1.76 1.71 1.71 1.74 1.85 1.97 1.99 1.97 2.08 2.10 2.01 2.01 1.83 1.81 1.68 1.49 1.25 1.16 1.05 1.04 1.01 0.95 0.88 0.84 0.86 0.96
1.53 1.60 1.67 1.70 1.69 1.69 1.58 1.57 1.60 1.58 1.64 1.57 1.49 1.49 1.49 1.54 1.54 1.53 1.43 1.56 1.71 1.79 1.82 1.85 1.87 2.03 2.20 2.24 2.06 1.96 2.01 1.96 1.79 1.52 1.41 1.25 1.17 1.10 1.07 1.02 0.96 0.91 0.92
1.57 1.61 1.60 1.67 1.66 1.43 1.51 1.50 1.49 1.60 1.69 1.67 1.57 1.49 1.41 1.36 1.28 1.23 1.21 1.28 1.48 1.62 1.67 1.74 1.75 1.87 2.07 2.27 2.32 2.26 2.16 2.09 2.05 1.90 1.82 1.70 1.48 1.37 1.26 1.15 1.10 1.05 0.98
1.68 1.65 1.60 1.59 1.63 1.68 1.68 1.51 1.37 1.37 1.48 1.51 1.50 1.48 1.33 1.22 1.31 1.26 1.25 1.22 1.24 1.34 1.42 1.55 1.64 1.67 1.81 2.04 2.27 2.23 2.30 2.33 2.31 2.28 2.29 2.23 1.93 1.71 1.48 1.31 1.15 0.93 0.85
1.85 1.82 1.76 1.69 1.70 1.69 1.61 1.41 1.37 1.33 1.39 1.42 1.45 1.46 1.45 1.37 1.38 1.45 1.44 1.38 1.27 1.22 1.24 1.27 1.35 1.47 1.67 1.93 2.19 2.17 2.18 2.27 2.32 2.32 2.37 2.39 2.14 1.95 1.70 1.50 1.35 1.09 0.91
1.92 1.87 1.85 1.88 1.84 1.86 1.87 1.67 1.62 1.51 1.55 1.58 1.59 1.58 1.55 1.48 1.56 1.49 1.41 1.38 1.31 1.26 1.25 1.29 1.27 1.40 1.60 1.70 1.87 1.96 1.95 2.01 1.96 1.89 2.02 2.21 2.20 2.12 1.96 1.69 1.43 1.22 0.98
1.98 2.03 2.05 2.05 2.05 2.10 2.27 2.04 1.83 1.68 1.73 1.74 1.82 1.78 1.75 1.61 1.60 1.50 1.37 1.38 1.34 1.33 1.39 1.36 1.30 1.30 1.35 1.51 1.68 1.72 1.85 1.98 1.88 1.74 1.54 1.64 1.83 2.00 2.14 1.95 1.68 1.47 1.31